STARLINK-39

decayed
NORAD ID: 44253 Int'l Des: 2019-029 Owner: SPXS Country: US Constellation: starlink
LEOCIRCULAR

关于 STARLINK-39

正在加载描述...

高度历史

Altitude vs Time

uPlot chart will show altitude changes over time

两行轨道根数

1 44253U 19029U 20261.06312664 .02181884 12221-4 28261-3 0 9994
2 44253 52.9927 108.7029 0010403 283.3728 218.5631 16.34792538 73578
Epoch: Sep 17, 2020 • Age: 43794 hours

当前状态

Position data unavailable
发射日期 May 24, 2019
运行时间 6.3 years
衰减日期 Sep 18, 2020
类型 internet

技术详情

分类 Payload
质量 227.00 kg
干质量 219.00 kg
总质量 227.00 kg
长度 0.20 m
直径 2.80 m
跨度 9.00 m
形状 Box + pan
制造商 SPXS
平台类型 Starlink
阶段状态 Reentered
所有者/国家 SPXS/US

大型星座

Loading constellations...